sim
Sign-in with your pilot id or email,
or register
Callsign
Passwort

Schedule Details

Flight Number: RYR1003 (1)
Departure: Warsaw Modlin Airport (EPMO) at 07:40
Arrival: Thessaloniki International Airport (LGTS) at 09:55
Route: Ryanair Passenger Schedule. Enter filed route here before submitting Pirep.

Weather Information
Getting current METAR information for EPMO 172230Z VRB02KT CAVOK 18/13 Q1013
Getting current METAR information for LGTS 172250Z 11004KT 9999 FEW025 21/16 Q1015 NOSIG

Schedule Frequency

Route Map